This is the latest recevied weather packets stored in our database for station/object OE2ATN. If no packets are shown the sender has not sent any weather packets the latest 10 day(s).
| Time | Temp. | Humidity | Pressure | Rain* | Wind** | Luminosity | Snow |
|---|---|---|---|---|---|---|---|
| 1778058023 | 15.56° C | 68% | 1014.2 hPa | 0 mm | - | - | - |
| 1778057723 | 15° C | 69% | 1014.2 hPa | 0 mm | - | - | - |
| 1778057424 | 14.44° C | 71% | 1014.3 hPa | 0 mm | - | - | - |
| 1778057124 | 14.44° C | 72% | 1014.3 hPa | 0 mm | - | - | - |
| 1778056824 | 13.89° C | 71% | 1014.3 hPa | 0 mm | - | - | - |
| 1778056523 | 13.33° C | 73% | 1014.4 hPa | 0 mm | - | - | - |
| 1778056223 | 13.33° C | 72% | 1014.5 hPa | 0 mm | - | - | - |
| 1778055923 | 12.78° C | 72% | 1014.5 hPa | 0 mm | - | - | - |
| 1778055622 | 13.33° C | 73% | 1014.4 hPa | 0 mm | - | - | - |
| 1778055322 | 12.78° C | 73% | 1014.6 hPa | 0 mm | - | - | - |
| 1778055023 | 12.22° C | 73% | 1014.6 hPa | 0 mm | - | - | - |
| 1778054723 | 12.22° C | 74% | 1014.7 hPa | 0 mm | - | - | - |
| 1778054422 | 11.67° C | 73% | 1014.6 hPa | 0 mm | - | - | - |
| 1778054122 | 11.67° C | 74% | 1014.8 hPa | 0 mm | - | - | - |
| 1778053822 | 11.67° C | 74% | 1014.8 hPa | 0 mm | - | - | - |
| 1778053522 | 11.67° C | 73% | 1014.8 hPa | 0 mm | - | - | - |
| 1778053222 | 11.67° C | 75% | 1014.8 hPa | 0 mm | - | - | - |
| 1778052922 | 11.67° C | 74% | 1015 hPa | 0 mm | - | - | - |
| 1778052621 | 11.67° C | 75% | 1015 hPa | 0 mm | - | - | - |
| 1778052321 | 11.11° C | 75% | 1015 hPa | 0 mm | - | - | - |
| 1778052022 | 11.11° C | 75% | 1015 hPa | 0 mm | - | - | - |
| 1778051722 | 11.11° C | 75% | 1015.2 hPa | 0 mm | - | - | - |
| 1778051421 | 11.11° C | 75% | 1015.3 hPa | 0 mm | - | - | - |
| 1778051123 | 11.11° C | 74% | 1015.3 hPa | 0 mm | - | - | - |
| 1778050821 | 11.11° C | 74% | 1015.3 hPa | 0 mm | - | - | - |
* Rain latest hour (hover to see other rain measurements)
** Current wind speed in m/s (hover to see current wind gust speed)